EW2581 Weather Reports


Display with metric or nautical units.
time (UTC)temp
F
wind
direction
speed
MPH
gust
MPH
rain 1hr
in
rain 24hr
in
rain mn
in
humidity
%
barometer
mb
20260906214506 83 360 0.0 0.0 0.00 0.00 0.00 21 1005.8
20260906213005 84 360 0.0 0.0 0.00 0.00 0.00 21 1005.9
20260906211503 83 360 0.0 0.0 0.00 0.00 0.00 22 1006.2
20260906210003 83 360 0.0 0.0 0.00 0.00 0.00 21 1006.3
20260906204504 84 360 0.0 0.0 0.00 0.00 0.00 20 1006.5
20260906203101 82 360 0.0 0.0 0.00 0.00 0.00 21 1006.9
20260906201602 83 360 0.0 0.0 0.00 0.00 0.00 21 1007.0
20260906200058 82 360 0.0 0.0 0.00 0.00 0.00 21 1007.1
20260906194558 82 360 0.0 0.0 0.00 0.00 0.00 21 1007.3
20260906193057 85 360 0.0 0.0 0.00 0.00 0.00 20 1007.3
20260906191610 83 360 0.0 0.0 0.00 0.00 0.00 19 1007.5
20260906190053 84 360 0.0 0.0 0.00 0.00 0.00 19 1007.8
20260906184557 82 360 0.0 0.0 0.00 0.00 0.00 20 1008.2
20260906183048 81 360 0.0 0.0 0.00 0.00 0.00 20 1008.5
20260906181545 81 360 0.0 0.0 0.00 0.00 0.00 20 1009.0
20260906180101 81 360 0.0 0.0 0.00 0.00 0.00 20 1009.3
20260906174540 80 360 0.0 0.0 0.00 0.00 0.00 20 1009.6
20260906173039 80 360 0.0 0.0 0.00 0.00 0.00 21 1009.8
20260906171532 78 360 0.0 0.0 0.00 0.00 0.00 23 1009.8
20260906170028 76 360 0.0 0.0 0.00 0.00 0.00 27 1010.0
20260906164524 73 360 0.0 0.0 0.00 0.00 0.00 33 1010.1
20260906163020 71 360 0.0 0.0 0.00 0.00 0.00 38 1010.3
20260906161516 69 360 0.0 0.0 0.00 0.00 0.00 42 1010.5
20260906160013 67 360 0.0 0.0 0.00 0.00 0.00 44 1010.8
20260906154509 66 360 0.0 0.0 0.00 0.00 0.00 44 1010.9
20260906153015 64 360 0.0 0.0 0.00 0.00 0.00 48 1011.0
20260906151501 62 360 0.0 0.0 0.00 0.00 0.00 52 1011.0
20260906150058 61 360 0.0 0.0 0.00 0.00 0.00 53 1011.1
20260906144553 58 360 0.0 0.0 0.00 0.00 0.00 58 1011.3
20260906143053 57 360 0.0 0.0 0.00 0.00 0.00 62 1011.4
20260906141551 56 360 0.0 0.0 0.00 0.00 0.00 64 1011.5
20260906140057 55 360 0.0 0.0 0.00 0.00 0.00 64 1011.5
20260906134547 53 360 0.0 0.0 0.00 0.00 0.00 60 1011.6
20260906133046 52 360 0.0 0.0 0.00 0.00 0.00 62 1011.5
20260906131559 50 360 0.0 0.0 0.00 0.00 0.00 64 1011.3
20260906130045 49 360 0.0 0.0 0.00 0.00 0.00 66 1011.3
20260906124544 49 360 0.0 0.0 0.00 0.00 0.00 67 1011.2
20260906123047 49 360 0.0 0.0 0.00 0.00 0.00 67 1011.3
20260906121543 48 360 0.0 0.0 0.00 0.00 0.00 69 1011.2
20260906120039 49 360 0.0 0.0 0.00 0.00 0.00 64 1011.1
20260906114539 49 360 0.0 0.0 0.00 0.00 0.00 63 1011.0
20260906113039 49 360 0.0 0.0 0.00 0.00 0.00 63 1010.9
20260906111536 50 360 0.0 0.0 0.00 0.00 0.00 63 1010.9
20260906110034 50 360 0.0 0.0 0.00 0.00 0.00 62 1010.8
20260906104533 50 360 0.0 0.0 0.00 0.00 0.00 60 1010.7
20260906103033 49 360 0.0 0.0 0.00 0.00 0.00 60 1010.8
20260906101532 50 360 0.0 0.0 0.00 0.00 0.00 58 1010.7
20260906100030 50 360 0.0 0.0 0.00 0.00 0.00 61 1010.7
20260906094529 51 360 0.0 0.0 0.00 0.00 0.00 59 1010.6
20260906093037 51 360 0.0 0.0 0.00 0.00 0.00 58 1010.5
20260906091528 50 360 0.0 0.0 0.00 0.00 0.00 61 1010.4
20260906090027 50 360 0.0 0.0 0.00 0.00 0.00 62 1010.3
20260906084525 51 360 0.0 0.0 0.00 0.00 0.00 58 1010.2
20260906083023 52 360 0.0 0.0 0.00 0.00 0.00 56 1010.1
20260906081526 53 360 0.0 0.0 0.00 0.00 0.00 57 1010.2
20260906080019 52 360 0.0 0.0 0.00 0.00 0.00 55 1010.4
20260906074517 53 360 0.0 0.0 0.00 0.00 0.00 52 1010.3
20260906073014 55 360 0.0 0.0 0.00 0.00 0.00 51 1010.5
20260906071512 57 360 0.0 0.0 0.00 0.00 0.00 49 1010.3
20260906070010 56 360 0.0 0.0 0.00 0.00 0.00 51 1010.3
20260906064511 55 360 0.0 0.0 0.00 0.00 0.00 54 1010.2
20260906063004 56 360 0.0 0.0 0.00 0.00 0.00 54 1010.1
20260906061505 56 360 0.0 0.0 0.00 0.00 0.00 53 1010.0
20260906060003 57 360 0.0 0.0 0.00 0.00 0.00 52 1009.8
20260906054601 59 360 0.0 0.0 0.00 0.00 0.00 49 1009.9
20260906053100 58 360 0.0 0.0 0.00 0.00 0.00 52 1009.8
20260906051603 60 360 0.0 0.0 0.00 0.00 0.00 48 1009.8
20260906050059 62 360 0.0 0.0 0.00 0.00 0.00 45 1009.4
20260906044559 63 360 0.0 0.0 0.00 0.00 0.00 42 1009.6
20260906043059 63 360 0.0 0.0 0.00 0.00 0.00 44 1009.7
20260906041559 65 360 0.0 0.0 0.00 0.00 0.00 42 1009.7
20260906040058 67 360 0.0 0.0 0.00 0.00 0.00 40 1009.5
20260906034558 68 360 0.0 0.0 0.00 0.00 0.00 39 1009.5
20260906033101 68 360 0.0 0.0 0.00 0.00 0.00 39 1009.7
20260906031559 67 360 0.0 0.0 0.00 0.00 0.00 41 1009.3
20260906030056 68 360 0.0 0.0 0.00 0.00 0.00 39 1009.2
20260906024555 70 360 0.0 0.0 0.00 0.00 0.00 36 1008.9
20260906023055 70 360 0.0 0.0 0.00 0.00 0.00 35 1008.8
20260906021559 71 360 0.0 0.0 0.00 0.00 0.00 36 1008.5
20260906020055 74 360 0.0 0.0 0.00 0.00 0.00 32 1008.4
20260906014605 76 360 0.0 0.0 0.00 0.00 0.00 29 1008.4
20260906013054 79 360 0.0 0.0 0.00 0.00 0.00 26 1008.2
20260906011606 79 360 0.0 0.0 0.00 0.00 0.00 27 1008.2
20260906010053 80 360 0.0 0.0 0.00 0.00 0.00 26 1008.2
20260906004552 80 360 0.0 0.0 0.00 0.00 0.00 26 1008.2
20260906003052 80 360 0.0 0.0 0.00 0.00 0.00 26 1008.1
20260906001559 81 360 0.0 0.0 0.00 0.00 0.00 25 1008.0
20260906000051 82 360 0.0 0.0 0.00 0.00 0.00 23 1008.1
20260905234551 83 360 0.0 0.0 0.00 0.00 0.00 22 1008.1
20260905233105 84 360 0.0 0.0 0.00 0.00 0.00 21 1007.9
20260905231555 83 360 0.0 0.0 0.00 0.00 0.00 21 1007.9
20260905230049 82 360 0.0 0.0 0.00 0.00 0.00 22 1007.9
20260905224606 82 360 0.0 0.0 0.00 0.00 0.00 22 1007.7
20260905223048 83 360 0.0 0.0 0.00 0.00 0.00 22 1008.1
20260905221546 83 360 0.0 0.0 0.00 0.00 0.00 21 1008.2
20260905220049 83 360 0.0 0.0 0.00 0.00 0.00 22 1008.3